LEPALEIB

Guest
Details From LEPA - Palma de Mallorca
To LEIB - Ibiza
Flight Number -
Tags None
Created
Modified
Stats Distance 76 nm / 140 km
Max Altitude 0 ft / 0 m
Waypoints 3
Social Downloads 0
Likes 0
Share VATSIM

Download

Looking for another format? Having issues loading an existing format? Contact us
Advertisement - Login to hide

Notes

None

Route

LEPA IZA LEIB

ID Type Via Altitude Latitude Longitude Leg Dist Tot Dist Heading (true) Name
O LEPA APT - 0 ft / 0 m 39.55170˚ 2.73890˚ - 0 nm - -
IZA NDB - 0 ft / 0 m 38.91550˚ 1.47040˚ 70 nm 70 nm 237° / 237° IBIZA NDB
O LEIB APT - 0 ft / 0 m 38.87280˚ 1.37310˚ 5 nm 75 nm 241° / 241° Ibiza

Altitude Profile

Advertisement - Login to hide

LEPA

Details ICAO LEPA (PMI)
Name Palma De Mallorca
Region Spain
Timezone Europe/Madrid (UTC+1.0)
Stats Elevation 24 ft / 7 m (AMSL)
Location 39.552536° 2.734958°
Runways 3
Magnetic Variation 0.986° E

METAR

LEPA 160200Z 31006KT 260V330 9999 FEW025 SCT039 12/05 Q1010 NOSIG

Decode

TAF

TAF LEPA 151700Z 1518/1618 30008KT 9999 FEW025 TX14/1612Z TN09/1606Z PROB40 TEMPO 1518/1605 31014G24KT TEMPO 1600/1618 FEW020TCU BKN025

Decode

Departure Runways

ID Width Length Bearing (true) Bearing (mag) Surface Threshold Offset Overrun Length
06C 148 ft / 45 m 8,181 ft / 2,494 m 58.47° 57.48° Asphalt 0 ft / 0 m 0 ft / 0 m
06L 148 ft / 45 m 10,716 ft / 3,266 m 58.46° 57.47° Asphalt 0 ft / 0 m 0 ft / 0 m
06R 148 ft / 45 m 9,832 ft / 2,997 m 58.48° 57.49° Asphalt 1,345 ft / 410 m 0 ft / 0 m
24C 148 ft / 45 m 8,181 ft / 2,494 m 238.49° 237.50° Asphalt 0 ft / 0 m 0 ft / 0 m
24L 148 ft / 45 m 9,832 ft / 2,997 m 238.50° 237.51° Asphalt 0 ft / 0 m 197 ft / 60 m
24R 148 ft / 45 m 10,716 ft / 3,266 m 238.48° 237.49° Asphalt 230 ft / 70 m 0 ft / 0 m

LEIB

Details ICAO LEIB (IBZ)
Name Ibiza
Region Spain
Timezone Europe/Madrid (UTC+1.0)
Stats Elevation 20 ft / 6 m (AMSL)
Location 38.872871° 1.373045°
Runways 1
Magnetic Variation 0.663° E

METAR

LEIB 160200Z 33009KT 300V360 CAVOK 12/03 Q1012 NOSIG

Decode

TAF

TAF LEIB 152000Z 1521/1621 30012KT 9999 SCT030 TX15/1612Z TN09/1606Z TEMPO 1521/1606 33005KT TEMPO 1606/1613 30014G24KT

Decode

Destination Runways

ID Width Length Bearing (true) Bearing (mag) Surface Threshold Offset Overrun Length
06 148 ft / 45 m 9,153 ft / 2,790 m 61.85° 61.19° Asphalt 0 ft / 0 m 213 ft / 65 m
24 148 ft / 45 m 9,153 ft / 2,790 m 241.86° 241.20° Asphalt 0 ft / 0 m 197 ft / 60 m

Approach Navaids

Runway Type Ident Frequency Range Bearing (true) Bearing (mag) Slope Elevation
06 Localiser IBI 111.10 MHz 18 nm / 33 km 62.00° 61.34° - 20 ft / 6 m (AMSL)
06 Glidescope IBI 111.10 MHz 10 nm / 19 km 62.00° 61.34° 3.00° 20 ft / 6 m (AMSL)
06 DME IBI 111.10 MHz 18 nm / 33 km - - - 20 ft / 6 m (AMSL)
24 Localiser IBZ 109.50 MHz 18 nm / 33 km 241.81° 241.15° - 15 ft / 5 m (AMSL)
24 Glidescope IBZ 109.50 MHz 10 nm / 19 km 241.86° 241.19° 3.00° 69 ft / 21 m (AMSL)
24 DME IBZ 109.50 MHz 18 nm / 33 km - - - 69 ft / 21 m (AMSL)

Popular Alternatives